Voltar ao catálogo

KUIPER-00488

AtivoComunicaçõesLEO
NORAD 68879·PAYLOAD·🇺🇸 United States

Lançado Apr 28, 2026 de Cape Canaveral Space Force Station

Loading…

Próximas Passagens (próximas 24 horas)

TLE

AtualizadoSource: CelesTrak SupGP

Época: Sep 14, 2026, 20:22 UTC

1 68879C 26095R   26257.84890046  .00002070  00000+0  27099-3 0  2576
2 68879  51.8990 199.1872 0001119  70.3657  44.1370 14.79924985    17

Acompanhe KUIPER-00488 em tempo real com AllMySat

Download on the App Store